Location: Newark
(50.0953°N, 2.1719°E)
Time: 14:57:46
(UTC+00:00)

Envisat - Visible Passes

Search period start: 20 January 2020 00:00
Search period end: 30 January 2020 00:00
Orbit: 764 x 766 km, 98.1° (Epoch: 20 January)

Date Brightness Start Highest point End Pass type
(mag) Time Alt. Az. Time Alt. Az. Time Alt. Az.
20 Jan 4.8 05:58:07 10° NNE 06:02:45 34° E 06:07:21 10° SSE visible
20 Jan 3.0 17:16:59 10° SSE 17:22:02 70° ENE 17:27:07 10° N visible
20 Jan 5.7 18:58:04 10° SW 19:01:36 19° W 19:05:08 10° NW visible
21 Jan 5.9 05:22:13 10° NE 05:25:35 18° E 05:28:56 10° SE visible
21 Jan 3.0 07:00:06 10° N 07:05:12 75° WNW 07:10:15 10° SSW visible
21 Jan 4.6 18:19:47 10° SSW 18:24:27 36° W 18:29:10 10° NNW visible
22 Jan 3.8 06:23:22 10° NNE 06:28:22 56° E 06:33:22 10° S visible
22 Jan 3.3 17:42:27 10° S 17:47:31 73° WSW 17:52:37 10° NNW visible
22 Jan 6.3 19:26:00 10° W 19:27:27 11° W 19:28:55 10° WNW visible
23 Jan 5.2 05:46:59 10° NE 05:51:22 28° E 05:55:42 10° SSE visible
23 Jan 3.1 17:05:48 10° SSE 17:10:46 57° ENE 17:15:47 10° N visible
23 Jan 5.5 18:46:12 10° SW 18:50:10 23° W 18:54:10 10° NW visible
24 Jan 6.1 05:11:27 10° NE 05:14:08 14° E 05:16:49 10° ESE visible
24 Jan 3.1 06:48:47 10° NNE 06:53:54 90° E 06:59:00 10° SSW visible
24 Jan 4.2 18:08:14 10° S 18:13:05 45° W 18:17:59 10° NNW visible
25 Jan 4.2 06:12:08 10° NNE 06:17:02 45° E 06:21:54 10° S visible
25 Jan 3.0 17:31:08 10° SSE 17:36:13 89° W 17:41:21 10° NNW visible
25 Jan 6.1 19:13:23 10° WSW 19:15:59 14° W 19:18:37 10° NW visible
26 Jan 5.5 05:35:56 10° NE 05:39:57 23° E 05:43:58 10° SE visible
26 Jan 5.2 18:34:26 10° SSW 18:38:46 28° W 18:43:08 10° NW visible
27 Jan 6.4 05:01:06 10° ENE 05:02:40 11° E 05:04:15 10° ESE visible
27 Jan 3.3 06:37:29 10° NNE 06:42:36 74° ESE 06:47:40 10° S visible
27 Jan 3.8 17:56:46 10° S 18:01:45 55° W 18:06:46 10° NNW visible
28 Jan 4.7 06:00:57 10° NNE 06:05:40 37° E 06:10:22 10° SSE visible
28 Jan 3.0 17:19:52 10° SSE 17:24:55 76° ENE 17:30:02 10° NNW visible
28 Jan 5.9 19:01:14 10° SW 19:04:32 17° W 19:07:53 10° NW visible
29 Jan 5.8 05:24:57 10° NE 05:28:32 19° E 05:32:06 10° SE visible
29 Jan 4.8 18:22:47 10° SSW 18:27:22 34° W 18:32:00 10° NNW visible
